Works best with JavaScript enabled!Works best in modern browsers!powered by h5ai
NameLast modifiedSize
folder-parentParent Directory
folderHP545012020-06-21 10:08
folderMotorola2018-01-29 13:22
folderTesla2019-10-06 06:04
fileBernards-219-SolidStateNoveltyProjects-MHBabani.pdf2018-01-29 13:222903 KB
fileBiofeedbackMonitor-EFI-Dec1986.pdf2018-01-29 13:221001 KB
fileBudgetElectronics-1982.pdf2018-01-29 13:2244799 KB
fileChromaChime.pdf2018-01-29 13:222180 KB
fileEA-Feb1977-FullLogicSQDecoder.pdf2018-01-29 13:22892 KB
fileEA-Jan1989-SingleChannelRemote.pdf2018-01-29 13:221820 KB
fileEA-May1981-SoundLevelMeter.pdf2018-01-29 13:22934 KB
fileEE-1978-09-SoundToLight.pdf2018-01-29 13:221650 KB
fileElectronicsWorld-May1990-ImprovedCDElectronics.pdf2018-01-29 13:222561 KB
fileElectronicsWorld-Oct1990-ReducingCrossoverDistortion.pdf2018-01-29 13:221176 KB
fileETI-1986-01-Jan.pdf2018-01-29 13:2226334 KB
fileETI-1986-07-July.pdf2018-01-29 13:2223109 KB
fileETI-ElectronicsDigest-1984-Summer.pdf2018-01-29 13:2225366 KB
fileEXAR-ModemDesignHandbook-July1983.pdf2018-01-29 13:227846 KB
fileHamrad Catalogue June 1972.pdf2018-01-29 13:2215353 KB
fileHandbookOfSemiconductorCircuitsTAB30.pdf2018-01-29 13:2214512 KB
fileIdeas-Calculate-AC-Watts.pdf2018-01-29 13:22399 KB
fileIdeas-Extend-RS485.pdf2018-01-29 13:22435 KB
fileLowVoltageFromAC.pdf2018-01-29 13:22126 KB
fileMetex M3600 B Series Operating Manual.pdf2018-01-29 13:225618 KB
fileMOSFET-biasing.pdf2018-01-29 13:222053 KB
filephilips_pm2421_dmm_1972_sm.pdf2018-01-29 13:224559 KB
filePlessey-AN141-SL6649.pdf2018-01-29 13:222561 KB
filePracticalElectronics1970Oct.pdf2020-01-05 13:5633486 KB
fileRCA-Hobby-Circuit-Manual-1970.pdf2020-01-05 13:5610675 KB
fileREW-June88-LowValueResistors.jpg2018-01-29 13:22248 KB
fileTransistorSubstitutionHandbook.pdf2018-01-29 13:2210229 KB
fileTwoTerminalTestOscillator.pdf2018-01-29 13:22366 KB
fileunderstanding-and-using-the-723-vr-hr-89-march.pdf2018-01-29 13:221763 KB
fileWirelessWorldMarch1982-RemoteControlForHiFiSystem.pdf2018-01-29 13:22857 KB